FW9258 Weather Reports


Display with metric or nautical units.
time (UTC)temp
F
wind
direction
speed
MPH
gust
MPH
rain 1hr
in
rain 24hr
in
rain mn
in
humidity
%
barometer
mb
20260508211015 52 340 2.0 3.0 0.00 0.00 0.00 81 1018.0
20260508210517 52 340 2.0 3.0 0.00 0.00 0.00 81 1018.0
20260508210035 52 336 2.0 3.0 0.00 0.00 0.00 82 1018.0
20260508205515 52 334 1.0 3.0 0.00 0.00 0.00 83 1017.9
20260508205015 52 335 2.0 3.0 0.00 0.00 0.00 83 1017.9
20260508204533 52 335 2.0 3.0 0.00 0.00 0.00 82 1017.8
20260508204015 52 336 2.0 4.0 0.00 0.00 0.00 82 1017.8
20260508203516 52 342 3.0 4.0 0.00 0.00 0.00 83 1017.7
20260508203037 52 357 3.0 4.0 0.00 0.00 0.00 82 1017.7
20260508202515 52 356 3.0 4.0 0.00 0.00 0.00 82 1017.6
20260508202015 52 351 3.0 3.0 0.00 0.00 0.00 82 1017.6
20260508201530 52 350 3.0 3.0 0.00 0.00 0.00 82 1017.6
20260508201017 52 339 1.0 2.0 0.00 0.00 0.00 83 1017.5
20260508200516 51 0 0.0 2.0 0.00 0.00 0.00 84 1017.6
20260508200035 51 324 1.0 2.0 0.00 0.00 0.00 83 1017.5
20260508195514 52 324 1.0 1.0 0.00 0.00 0.00 83 1017.4
20260508195015 52 0 0.0 1.0 0.00 0.00 0.00 83 1017.5
20260508194536 53 324 1.0 1.0 0.00 0.00 0.00 82 1017.4
20260508194014 53 323 0.0 1.0 0.00 0.00 0.00 83 1017.4
20260508193515 53 323 0.0 1.0 0.00 0.00 0.00 82 1017.3
20260508193039 53 323 0.0 1.0 0.00 0.00 0.00 82 1017.3
20260508192515 54 0 0.0 1.0 0.00 0.00 0.00 82 1017.3
20260508192018 54 0 0.0 1.0 0.00 0.00 0.00 81 1017.3
20260508191539 55 323 0.0 1.0 0.00 0.00 0.00 80 1017.1
20260508191016 56 0 0.0 0.0 0.00 0.00 0.00 80 1017.1
20260508190518 56 0 0.0 0.0 0.00 0.00 0.00 80 1017.1
20260508190036 56 0 0.0 0.0 0.00 0.00 0.00 79 1017.2
20260508185517 57 0 0.0 1.0 0.00 0.00 0.00 80 1017.1
20260508185019 57 0 0.0 1.0 0.00 0.00 0.00 79 1017.1
20260508184535 57 324 0.0 1.0 0.00 0.00 0.00 79 1017.0
20260508184015 57 0 0.0 1.0 0.00 0.00 0.00 79 1017.0
20260508183518 57 0 0.0 1.0 0.00 0.00 0.00 80 1017.0
20260508183034 58 0 0.0 1.0 0.00 0.00 0.00 81 1016.8
20260508182517 57 0 0.0 1.0 0.00 0.00 0.00 81 1016.9
20260508182052 57 307 0.0 2.0 0.00 0.00 0.00 80 1016.8
20260508181537 57 303 1.0 3.0 0.00 0.00 0.00 80 1016.7
20260508181015 57 300 2.0 3.0 0.00 0.00 0.00 80 1016.7
20260508180516 58 308 0.0 4.0 0.00 0.00 0.00 79 1016.6
20260508180032 58 298 2.0 4.0 0.00 0.00 0.00 79 1016.5
20260508175517 59 293 2.0 4.0 0.00 0.00 0.00 77 1016.5
20260508175017 60 314 2.0 7.0 0.00 0.00 0.00 76 1016.6
20260508174538 60 296 2.0 7.0 0.00 0.00 0.00 72 1016.5
20260508174017 61 315 2.0 7.0 0.00 0.00 0.00 70 1016.5
20260508173515 62 302 0.0 3.0 0.00 0.00 0.00 74 1016.5
20260508173031 61 298 0.0 3.0 0.00 0.00 0.00 70 1016.5
20260508172515 61 316 1.0 3.0 0.00 0.00 0.00 70 1016.5
20260508172018 60 309 0.0 2.0 0.00 0.00 0.00 71 1016.3
20260508171537 60 0 0.0 1.0 0.00 0.00 0.00 71 1016.4
20260508171018 60 0 0.0 1.0 0.00 0.00 0.00 70 1016.4
20260508170516 60 316 0.0 1.0 0.00 0.00 0.00 71 1016.2
20260508170035 60 0 0.0 2.0 0.00 0.00 0.00 71 1016.2
20260508165515 60 0 0.0 3.0 0.00 0.00 0.00 72 1016.2
20260508165015 60 316 0.0 4.0 0.00 0.00 0.00 73 1016.1
20260508164535 60 311 1.0 4.0 0.00 0.00 0.00 73 1016.1
20260508164016 61 316 1.0 6.0 0.00 0.00 0.00 73 1016.1
20260508163515 61 322 2.0 6.0 0.00 0.00 0.00 71 1016.2
20260508163037 61 335 3.0 6.0 0.00 0.00 0.00 71 1016.2
20260508162515 61 15 3.0 6.0 0.00 0.00 0.00 70 1016.1
20260508162017 61 265 3.0 6.0 0.00 0.00 0.00 68 1016.1
20260508161534 62 13 3.0 5.0 0.00 0.00 0.00 69 1016.0
20260508161016 62 79 2.0 6.0 0.00 0.00 0.00 68 1016.0
20260508160514 62 307 2.0 6.0 0.00 0.00 0.00 66 1016.0
20260508160037 63 297 2.0 4.0 0.00 0.00 0.00 65 1015.9
20260508155522 64 300 2.0 4.0 0.00 0.00 0.00 65 1015.9
20260508155018 64 347 1.0 4.0 0.00 0.00 0.00 64 1015.8
20260508154535 64 219 1.0 4.0 0.00 0.00 0.00 65 1015.9
20260508154017 64 0 1.0 4.0 0.00 0.00 0.00 68 1015.8
20260508153519 64 303 1.0 4.0 0.00 0.00 0.00 66 1015.8
20260508153037 63 0 0.0 3.0 0.00 0.00 0.00 63 1015.9
20260508152516 63 307 1.0 5.0 0.00 0.00 0.00 65 1015.9
20260508152018 63 0 1.0 5.0 0.00 0.00 0.00 66 1015.9
20260508151535 63 294 2.0 5.0 0.00 0.00 0.00 67 1015.9
20260508151016 63 0 1.0 5.0 0.00 0.00 0.00 66 1015.9
20260508150519 62 309 1.0 6.0 0.00 0.00 0.00 68 1016.0
20260508150032 61 61 1.0 6.0 0.00 0.00 0.00 69 1016.0
20260508145515 61 288 3.0 8.0 0.00 0.00 0.00 69 1016.2
20260508145016 61 113 3.0 8.0 0.00 0.00 0.00 69 1016.1
20260508144533 61 108 4.0 7.0 0.00 0.00 0.00 70 1016.1
20260508144017 61 104 4.0 9.0 0.00 0.00 0.00 71 1016.1
20260508143523 61 102 4.0 9.0 0.00 0.00 0.00 69 1016.1
20260508143035 61 82 3.0 9.0 0.00 0.00 0.00 71 1016.1
20260508142518 61 129 6.0 9.0 0.00 0.00 0.00 72 1016.1
20260508142019 61 105 6.0 9.0 0.00 0.00 0.00 72 1016.1
20260508141536 61 103 6.0 9.0 0.00 0.00 0.00 71 1016.1
20260508141018 61 110 5.0 10.0 0.00 0.00 0.00 72 1016.1
20260508140515 61 120 6.0 10.0 0.00 0.00 0.00 74 1016.1
20260508140034 61 133 5.0 9.0 0.00 0.00 0.00 74 1016.0
20260508135522 61 117 4.0 11.0 0.00 0.00 0.00 75 1016.0
20260508135016 61 116 5.0 11.0 0.00 0.00 0.00 74 1016.0
20260508134535 62 100 2.0 9.0 0.00 0.00 0.00 77 1016.0
20260508134018 61 316 6.0 9.0 0.00 0.00 0.00 75 1016.0
20260508133517 61 144 6.0 11.0 0.00 0.00 0.00 77 1016.1
20260508133032 60 112 6.0 11.0 0.00 0.00 0.00 76 1016.1
20260508132515 60 106 4.0 11.0 0.00 0.00 0.00 75 1016.1
20260508132015 60 332 6.0 11.0 0.00 0.00 0.00 78 1016.0
20260508131540 60 67 6.0 12.0 0.00 0.00 0.00 75 1016.0
20260508131018 60 86 7.0 12.0 0.00 0.00 0.00 74 1015.9
20260508130519 60 132 4.0 10.0 0.00 0.00 0.00 74 1015.9
20260508130035 60 60 4.0 11.0 0.00 0.00 0.00 77 1015.9
20260508125521 60 108 6.0 11.0 0.00 0.00 0.00 76 1016.0
20260508125017 59 94 6.0 10.0 0.00 0.00 0.00 78 1016.0
20260508124533 59 118 6.0 11.0 0.00 0.00 0.00 77 1016.0
20260508124021 59 106 7.0 12.0 0.00 0.00 0.00 78 1016.0
20260508123515 59 102 7.0 12.0 0.00 0.00 0.00 77 1016.0
20260508123032 59 109 8.0 12.0 0.00 0.00 0.00 77 1015.9
20260508122516 60 342 7.0 11.0 0.00 0.00 0.00 77 1016.0
20260508122016 60 129 6.0 11.0 0.00 0.00 0.00 76 1015.9
20260508121531 61 117 4.0 11.0 0.00 0.00 0.00 77 1015.9
20260508121014 61 107 3.0 11.0 0.00 0.00 0.00 78 1015.9
20260508120516 60 167 2.0 11.0 0.00 0.00 0.00 79 1016.0
20260508120039 59 125 6.0 11.0 0.00 0.00 0.00 79 1015.9
20260508115514 59 150 7.0 11.0 0.00 0.00 0.00 78 1015.9
20260508115042 58 96 6.0 11.0 0.00 0.00 0.00 79 1016.0
20260508114535 58 98 8.0 12.0 0.00 0.00 0.00 79 1015.9
20260508114018 58 96 7.0 12.0 0.00 0.00 0.00 80 1016.0
20260508113517 58 115 8.0 12.0 0.00 0.00 0.00 78 1016.0
20260508113035 57 107 8.0 12.0 0.00 0.00 0.00 79 1015.9
20260508112517 57 143 8.0 13.0 0.00 0.00 0.00 79 1015.9
20260508112016 58 96 7.0 13.0 0.00 0.00 0.00 79 1015.9
20260508111542 58 150 8.0 13.0 0.00 0.00 0.00 79 1015.9
20260508111016 58 116 7.0 12.0 0.00 0.00 0.00 80 1015.8
20260508110517 57 117 6.0 12.0 0.00 0.00 0.00 81 1015.8
20260508110033 57 128 8.0 11.0 0.00 0.00 0.00 79 1015.7
20260508105516 57 113 7.0 12.0 0.00 0.00 0.00 80 1015.6
20260508105020 57 127 6.0 12.0 0.00 0.00 0.00 79 1015.6
20260508104536 57 114 7.0 13.0 0.00 0.00 0.00 81 1015.6
20260508104016 56 104 8.0 13.0 0.00 0.00 0.00 81 1015.5
20260508103516 56 131 4.0 10.0 0.00 0.00 0.00 82 1015.6
20260508103037 56 100 5.0 11.0 0.00 0.00 0.00 82 1015.8
20260508102516 56 119 6.0 11.0 0.00 0.00 0.00 80 1015.8
20260508102018 56 150 5.0 12.0 0.00 0.00 0.00 80 1015.9
20260508101536 56 117 6.0 12.0 0.00 0.00 0.00 81 1016.0
20260508101016 57 32 6.0 13.0 0.00 0.00 0.00 80 1016.0
20260508100517 56 302 6.0 13.0 0.00 0.00 0.00 81 1016.1
20260508100032 55 117 7.0 13.0 0.00 0.00 0.00 82 1016.1
20260508095516 54 125 5.0 10.0 0.00 0.00 0.00 81 1016.1
20260508095016 53 122 5.0 11.0 0.00 0.00 0.00 81 1016.0
20260508094534 53 55 6.0 11.0 0.00 0.00 0.00 82 1016.1
20260508094017 54 114 3.0 10.0 0.00 0.00 0.00 82 1016.0
20260508093516 54 109 3.0 11.0 0.00 0.00 0.00 82 1016.0
20260508093033 54 321 6.0 13.0 0.00 0.00 0.00 80 1016.0
20260508092518 55 128 8.0 13.0 0.00 0.00 0.00 80 1015.9
20260508092017 55 95 7.0 13.0 0.00 0.00 0.00 79 1016.0
20260508091544 55 110 7.0 12.0 0.00 0.00 0.00 79 1015.9
20260508091017 55 136 5.0 10.0 0.00 0.00 0.00 80 1015.8
20260508090517 55 128 4.0 10.0 0.00 0.00 0.00 80 1015.8
20260508090036 55 302 1.0 8.0 0.00 0.00 0.00 81 1015.8
20260508085517 55 314 1.0 9.0 0.00 0.00 0.00 80 1015.7
20260508085018 55 302 4.0 9.0 0.00 0.00 0.00 79 1015.7
20260508084534 56 317 3.0 7.0 0.00 0.00 0.00 80 1015.7
20260508084022 55 328 1.0 11.0 0.00 0.00 0.00 82 1015.8
20260508083515 55 309 1.0 11.0 0.00 0.00 0.00 81 1015.8
20260508083032 54 300 4.0 11.0 0.00 0.00 0.00 79 1015.8
20260508082515 54 300 2.0 8.0 0.00 0.00 0.00 80 1015.9
20260508082015 55 328 1.0 5.0 0.00 0.00 0.00 79 1015.9
20260508081544 55 130 2.0 8.0 0.00 0.00 0.00 80 1015.9
20260508081017 55 210 1.0 13.0 0.00 0.00 0.00 81 1015.9
20260508080518 54 123 1.0 13.0 0.00 0.00 0.00 83 1015.9
20260508080032 54 124 7.0 13.0 0.00 0.00 0.00 81 1015.9
20260508075516 54 84 4.0 9.0 0.00 0.00 0.00 83 1015.8
20260508075015 53 311 1.0 11.0 0.00 0.00 0.00 85 1015.7
20260508074532 53 261 3.0 11.0 0.00 0.00 0.00 86 1015.7
20260508074015 52 114 5.0 11.0 0.00 0.00 0.00 86 1015.6
20260508073518 51 307 3.0 10.0 0.00 0.00 0.00 87 1015.7
20260508073035 51 309 1.0 6.0 0.00 0.00 0.00 88 1015.6
20260508072515 51 273 0.0 4.0 0.00 0.00 0.00 88 1015.6
20260508072017 50 308 0.0 4.0 0.00 0.00 0.00 88 1015.5
20260508071536 50 309 1.0 4.0 0.00 0.00 0.00 87 1015.6
20260508071016 50 321 1.0 5.0 0.00 0.00 0.00 87 1015.5
20260508070517 50 357 1.0 5.0 0.00 0.00 0.00 87 1015.4
20260508070035 50 323 1.0 5.0 0.00 0.00 0.00 88 1015.3
20260508065518 50 310 1.0 5.0 0.00 0.00 0.00 88 1015.3
20260508065018 50 300 1.0 4.0 0.00 0.00 0.00 88 1015.2
20260508064534 50 313 1.0 4.0 0.00 0.00 0.00 88 1015.1
20260508064019 50 354 0.0 4.0 0.00 0.00 0.00 88 1015.1
20260508063521 50 300 0.0 4.0 0.00 0.00 0.00 89 1015.1
20260508063032 50 301 0.0 4.0 0.00 0.00 0.00 89 1015.0
20260508062517 50 89 1.0 3.0 0.00 0.00 0.00 89 1015.0
20260508062017 50 305 0.0 1.0 0.00 0.00 0.00 89 1015.1
20260508061538 49 0 0.0 2.0 0.00 0.00 0.00 89 1015.1
20260508061017 49 0 0.0 3.0 0.00 0.00 0.00 89 1015.1
20260508060519 49 356 0.0 4.0 0.00 0.00 0.00 88 1015.2
20260508060035 49 316 0.0 4.0 0.00 0.00 0.00 88 1015.2
20260508055516 49 315 0.0 3.0 0.00 0.00 0.00 88 1015.1
20260508055016 49 326 0.0 3.0 0.00 0.00 0.00 88 1015.1
20260508054539 49 324 0.0 3.0 0.00 0.00 0.00 88 1015.0
20260508054015 49 330 0.0 3.0 0.00 0.00 0.00 88 1015.0
20260508053516 49 319 0.0 3.0 0.00 0.00 0.00 88 1015.1
20260508053032 49 354 0.0 3.0 0.00 0.00 0.00 88 1015.1
20260508052517 49 0 0.0 2.0 0.00 0.00 0.00 88 1015.1
20260508052016 48 333 0.0 2.0 0.00 0.00 0.00 88 1015.1
20260508051538 48 0 0.0 2.0 0.00 0.00 0.00 88 1015.1
20260508051017 49 321 0.0 1.0 0.00 0.00 0.00 88 1015.1
20260508050516 49 0 0.0 1.0 0.00 0.00 0.00 88 1015.1
20260508050035 49 320 0.0 2.0 0.00 0.00 0.00 88 1015.0
20260508045519 49 0 0.0 2.0 0.00 0.00 0.00 88 1015.0
20260508045016 49 316 0.0 2.0 0.00 0.00 0.00 88 1015.1
20260508044532 49 321 0.0 1.0 0.00 0.00 0.00 88 1015.1
20260508044017 49 317 0.0 2.0 0.00 0.00 0.00 88 1015.0
20260508043516 49 309 0.0 2.0 0.00 0.00 0.00 88 1015.0
20260508043033 49 297 0.0 2.0 0.00 0.00 0.00 88 1015.0
20260508042519 49 318 0.0 2.0 0.00 0.00 0.00 88 1014.9
20260508042015 49 316 0.0 5.0 0.00 0.00 0.00 88 1015.0
20260508041535 49 0 0.0 5.0 0.00 0.00 0.00 88 1014.9
20260508041016 49 326 0.0 4.0 0.00 0.00 0.00 87 1014.9
20260508040519 49 328 0.0 4.0 0.00 0.00 0.00 87 1014.9
20260508040038 49 0 0.0 3.0 0.00 0.00 0.00 87 1014.9
20260508035519 49 326 0.0 2.0 0.00 0.00 0.00 87 1015.0
20260508035019 49 323 0.0 2.0 0.00 0.00 0.00 86 1015.0
20260508034539 49 0 0.0 2.0 0.00 0.00 0.00 86 1015.1
20260508034015 49 321 0.0 1.0 0.00 0.00 0.00 86 1015.0
20260508033517 49 321 0.0 3.0 0.00 0.00 0.00 86 1015.1
20260508033034 49 0 0.0 3.0 0.00 0.00 0.00 86 1015.0
20260508032516 49 297 0.0 2.0 0.00 0.00 0.00 86 1015.1
20260508032019 49 321 0.0 4.0 0.00 0.00 0.00 85 1015.0
20260508031532 49 0 0.0 6.0 0.00 0.00 0.00 85 1015.1
20260508031015 49 0 0.0 6.0 0.00 0.00 0.00 85 1015.1
20260508030515 49 319 2.0 6.0 0.00 0.00 0.00 84 1015.1
20260508030034 49 310 0.0 2.0 0.00 0.00 0.00 84 1015.1
20260508025519 49 339 0.0 5.0 0.00 0.00 0.00 84 1015.1
20260508025017 49 0 0.0 9.0 0.00 0.00 0.00 84 1015.1
20260508024536 49 307 4.0 9.0 0.00 0.00 0.00 84 1015.2
20260508024016 49 301 3.0 7.0 0.00 0.00 0.00 85 1015.3
20260508023519 49 30 1.0 6.0 0.00 0.00 0.00 85 1015.3
20260508023036 49 356 2.0 6.0 0.00 0.00 0.00 85 1015.3
20260508022515 49 283 1.0 5.0 0.00 0.00 0.00 84 1015.3
20260508022016 49 305 1.0 5.0 0.00 0.00 0.00 83 1015.2
20260508021534 50 333 1.0 7.0 0.00 0.00 0.00 83 1015.3
20260508021016 49 111 2.0 7.0 0.00 0.00 0.00 82 1015.2
20260508020515 49 284 1.0 4.0 0.00 0.00 0.00 82 1015.2
20260508020037 49 307 0.0 3.0 0.00 0.00 0.00 82 1015.2
20260508015515 49 306 0.0 3.0 0.00 0.00 0.00 82 1015.2
20260508015015 49 0 0.0 5.0 0.00 0.00 0.00 83 1015.2
20260508014534 49 288 2.0 5.0 0.00 0.00 0.00 83 1015.3
20260508014017 49 318 1.0 4.0 0.00 0.00 0.00 83 1015.4
20260508013518 49 317 0.0 2.0 0.00 0.00 0.00 84 1015.4
20260508013037 49 321 0.0 2.0 0.00 0.00 0.00 84 1015.4
20260508012516 49 0 0.0 2.0 0.00 0.00 0.00 85 1015.3
20260508012019 49 0 0.0 2.0 0.00 0.00 0.00 85 1015.3
20260508011536 49 334 0.0 1.0 0.00 0.00 0.00 86 1015.4
20260508011015 50 0 0.0 2.0 0.00 0.00 0.00 87 1015.4
20260508010515 50 314 0.0 2.0 0.00 0.00 0.00 88 1015.4
20260508010034 50 316 0.0 4.0 0.00 0.00 0.00 88 1015.5
20260508005515 50 326 1.0 4.0 0.00 0.00 0.00 89 1015.5
20260508005016 50 56 0.0 2.0 0.00 0.00 0.00 88 1015.5
20260508004537 50 316 0.0 2.0 0.00 0.00 0.00 88 1015.5
20260508004018 50 0 0.0 2.0 0.00 0.00 0.00 88 1015.5
20260508003517 50 0 0.0 2.0 0.00 0.00 0.00 88 1015.5
20260508003033 50 0 0.0 1.0 0.00 0.00 0.00 88 1015.6
20260508002515 50 335 0.0 1.0 0.00 0.00 0.00 88 1015.6
20260508002015 50 0 0.0 1.0 0.00 0.00 0.00 88 1015.5
20260508001536 50 0 0.0 1.0 0.00 0.00 0.00 88 1015.6
20260508001019 50 0 0.0 1.0 0.00 0.00 0.00 88 1015.7
20260508000519 50 0 0.0 1.0 0.00 0.00 0.00 88 1015.6
20260508000034 50 0 0.0 1.0 0.00 0.00 0.00 87 1015.7
20260507235522 50 324 0.0 1.0 0.00 0.00 0.00 87 1015.7
20260507235015 50 332 0.0 1.0 0.00 0.00 0.00 87 1015.7
20260507234539 50 0 0.0 1.0 0.00 0.00 0.00 87 1015.7
20260507234015 50 319 0.0 3.0 0.00 0.00 0.00 87 1015.8
20260507233515 50 0 0.0 3.0 0.00 0.00 0.00 87 1015.7
20260507233033 50 332 1.0 3.0 0.00 0.00 0.00 87 1015.7
20260507232515 50 345 1.0 3.0 0.00 0.00 0.00 87 1015.8
20260507232015 50 326 1.0 3.0 0.00 0.00 0.00 87 1015.8
20260507231543 50 328 0.0 2.0 0.00 0.00 0.00 87 1015.9
20260507231024 50 0 0.0 1.0 0.00 0.00 0.00 87 1015.9
20260507230516 50 326 0.0 1.0 0.00 0.00 0.00 87 1015.9
20260507230034 50 0 0.0 1.0 0.00 0.00 0.00 87 1016.0
20260507225517 50 0 0.0 1.0 0.00 0.00 0.00 87 1016.0
20260507225017 50 0 0.0 1.0 0.00 0.00 0.00 87 1016.0
20260507224535 50 0 0.0 1.0 0.00 0.00 0.00 87 1015.9
20260507224015 50 0 0.0 1.0 0.00 0.00 0.00 87 1016.0
20260507223518 50 314 0.0 1.0 0.00 0.00 0.00 87 1015.9
20260507223032 50 324 0.0 1.0 0.00 0.00 0.00 87 1015.8
20260507222515 50 0 0.0 1.0 0.00 0.00 0.00 87 1015.8
20260507222017 49 0 0.0 1.0 0.00 0.00 0.00 87 1015.9
20260507221534 49 329 0.0 1.0 0.00 0.00 0.00 87 1015.9
20260507221015 49 0 0.0 1.0 0.00 0.00 0.00 87 1015.8
20260507220515 49 0 0.0 1.0 0.00 0.00 0.00 87 1015.8
20260507220037 49 0 0.0 1.0 0.00 0.00 0.00 87 1015.7
20260507215520 49 0 0.0 1.0 0.00 0.00 0.00 87 1015.8
20260507215017 49 0 0.0 0.0 0.00 0.00 0.00 87 1015.8
20260507214534 49 0 0.0 1.0 0.00 0.00 0.00 86 1015.9
20260507214023 49 0 0.0 1.0 0.00 0.00 0.00 86 1015.9
20260507213516 49 0 0.0 1.0 0.00 0.00 0.00 86 1016.0
20260507213042 50 0 0.0 1.0 0.00 0.00 0.00 87 1015.9
20260507212520 50 0 0.0 0.0 0.00 0.00 0.00 86 1016.0
20260507212017 50 0 0.0 0.0 0.00 0.00 0.00 86 1015.9
20260507211536 50 0 0.0 1.0 0.00 0.00 0.00 86 1015.8